Voltar ao catálogo

COSMOS 1275 DEB

AtivoPO
NORAD 12656·DEBRIS·🇷🇺 Russia

Lançado Jun 4, 1981 de Plesetsk Cosmodrome

Loading…

Próximas Passagens (próximas 24 horas)

TLE

AtualizadoSource: Space-Track

Época: Sep 14, 2026, 04:07 UTC

1 12656U 81053L   26257.17185443  .00000394  00000-0  29193-3 0  9995
2 12656  82.9644 344.7535 0025305 182.3419 197.5115 13.92638866280987

Acompanhe COSMOS 1275 DEB em tempo real com AllMySat

Download on the App Store